Regional Weather Roundup
Issued by NWS Northern Indiana

Home | Current Version | Previous Version | Text Only | Print | Product List | Glossary Off
Versions: 1 2 3 4 5 6 7 8 9 10 11 12 13 14 15 16 17 18 19 20 21 22 23 24 25 26 27 28 29 30 31 32 33 34 35 36 37 38 39 40 41 42 43 44 45 46 47 48 49 50

000
ASUS43 KIWX 191210
RWRIWX

KIWX WEATHER ROUNDUP
NATIONAL WEATHER SERVICE NORTHERN INDIANA
700 AM EST FRI DEC 19 2014

NOTE: "FAIR" INDICATES FEW OR NO CLOUDS BELOW 12,000 FEET WITH NO
SIGNIFICANT WEATHER AND/OR OBSTRUCTIONS TO VISIBILITY.

* THESE STATIONS ARE NOT UNDER NWS QUALITY CONTROL. THEY ALSO MAY NOT
  REPORT WEATHER SUCH AS PRECIPITATION OR FOG.

INZ001>027-191300-
NORTHERN INDIANA

CITY           SKY/WX    TMP DP  RH WIND       PRES   REMARKS
GARY*          CLOUDY    30  21  69 W3        30.28S
VALPARAISO     CLOUDY    28  23  81 W8        30.26R WCI  20
6HR MIN TEMP:  26; 6HR MAX TEMP:  28;

MICHIGAN CITY* CLOUDY    32  23  69 N6        30.26S WCI  26
LAPORTE*       CLOUDY    30  27  87 W3        30.26S
6HR MIN TEMP:  28; 6HR MAX TEMP:  30;

KNOX*          CLOUDY    28  22  81 W5        30.26R WCI  22
6HR MIN TEMP:   9; 6HR MAX TEMP:  81;

SOUTH BEND     CLOUDY    28  24  85 CALM      30.25R
6HR MIN TEMP:  27; 6HR MAX TEMP:  28; 6HR PCP: TRACE;

ELKHART*       CLOUDY    27  21  80 CALM      30.26
GOSHEN         CLOUDY    27  23  85 CALM      30.24S
6HR MIN TEMP:  26; 6HR MAX TEMP:  27;

MONTICELLO*    CLOUDY    25  22  88 NW3       30.27S
6HR MIN TEMP:  23; 6HR MAX TEMP:  25;

LOGANSPORT*    CLOUDY    27  21  80 W3        30.27F
ROCHESTER*     PTCLDY    30  27  86 CALM      30.26S
WARSAW*        CLOUDY    27  23  86 W3        30.25S
ANGOLA*        CLOUDY    27  23  86 W6        30.23R WCI  20
FORT WAYNE     CLOUDY    26  21  81 W6        30.27R WCI  19
6HR MIN TEMP:  26; 6HR MAX TEMP:  27;

HUNTINGTON*    CLOUDY    26  22  87 W3        30.26R
6HR MIN TEMP:  26; 6HR MAX TEMP:  26;

PERU/GRISSOM   CLOUDY    26  25  96 W5        30.25S WCI  20
6HR MIN TEMP:  25; 6HR MAX TEMP:  26;

MARION*        CLOUDY    26  22  88 NW5       30.27R WCI  20
6HR MIN TEMP:  22; 6HR MAX TEMP:  50;


$$
INZ028>050-191300-
CENTRAL INDIANA

CITY           SKY/WX    TMP DP  RH WIND       PRES   REMARKS
LAFAYETTE      CLOUDY    21  19  92 CALM      30.29R
6HR MIN TEMP:  17; 6HR MAX TEMP:  21;

KOKOMO*        CLOUDY    27  19  74 NW6       30.26S WCI  20
6HR MIN TEMP:  25; 6HR MAX TEMP:  27;

MUNCIE*        CLOUDY    26  20  77 NW5       30.26R WCI  20
6HR MIN TEMP:  25; 6HR MAX TEMP:  26;

INDIANAPOLIS   PTCLDY    20  17  88 NW6       30.27R WCI  12
6HR MIN TEMP:  19; 6HR MAX TEMP:  23;


$$
MIZ043>046-050>051-056>058-064>065-071>073-077>080-191300-
SOUTHWEST LOWER MICHIGAN

CITY           SKY/WX    TMP DP  RH WIND       PRES   REMARKS
BATTLE CREEK   CLOUDY    29  25  85 NW7       30.23R WCI  22
6HR MIN TEMP:  29; 6HR MAX TEMP:  29;

BENTON HARBOR  CLOUDY    28  23  81 CALM      30.26R
6HR MIN TEMP:  28; 6HR MAX TEMP:  31; 6HR PCP: TRACE;

COLDWATER*     CLOUDY    27  26  94 MISG      30.22R FOG
6HR MIN TEMP:  27; 6HR MAX TEMP:  27;

HILLSDALE*     CLOUDY    28  27  96 W3        30.21R FOG
6HR MIN TEMP:  27; 6HR MAX TEMP:  28;

HOLLAND        CLEAR     21  16  81 CALM      30.26R
6HR MIN TEMP:  21; 6HR MAX TEMP:  30;

GRAND RAPIDS   CLOUDY    27  19  72 NE5       30.24S WCI  22
6HR MIN TEMP:  26; 6HR MAX TEMP:  28;

KALAMAZOO      CLOUDY    28  24  85 N6        30.23S WCI  22
6HR MIN TEMP:  28; 6HR MAX TEMP:  29;

STURGIS*       CLOUDY    25  25 100 SW5       30.23R FOG     WCI  19
THREE RIVERS*  FAIR      25  23  92 SW3       30.25R FOG
6HR MIN TEMP:  25; 6HR MAX TEMP:  28;


$$
OHZ001>008-015>018-024>025-191300-
NORTHWEST OHIO

CITY           SKY/WX    TMP DP  RH WIND       PRES   REMARKS
WAUSEON*       CLOUDY    28  27  93 W8        30.24R FOG     WCI  20
DEFIANCE       CLOUDY    29  24  82 W3        30.25R
6HR MIN TEMP:  29; 6HR MAX TEMP:  29;

FINDLAY        CLOUDY    29  24  82 W7        30.23R WCI  22
6HR MIN TEMP:  29; 6HR MAX TEMP:  29;

TOLEDO EXPRESS CLOUDY    28  25  86 W6        30.24R WCI  22
6HR MIN TEMP:  28; 6HR MAX TEMP:  29;

TOLEDO METCALF CLOUDY    30  25  81 W6        30.25R WCI  24
6HR MIN TEMP:  30; 6HR MAX TEMP:  31;

LIMA           CLOUDY    30  22  72 W7        30.23S WCI  23
6HR MIN TEMP:  29; 6HR MAX TEMP:  30;


$$
AND FOR LAKE MICHIGAN COASTAL AND OPEN LAKE BUOY OBSERVATIONS

STATION/POSITION TEMP    WIND        PRES    VSBY  WAVE
                 AIR SEA DIR/SP/G                  HT/PER
                 (F)     (DEG/KT/KT) (MB)    (MI)  (FT/S)
CALUMET HARBOR    29     290/  3/  6 1023.9R
SAINT JOSEPH      30      70/  3/  5 1024.7F

$$
&&


USA.gov is the U.S. government's official web portal to all federal, state and local government web resources and services.